| time (UTC) | temp C | wind direction | speed KPH | gust KPH | rain 1hr cm | rain 24hr cm | rain mn cm | humidity % | barometer mb |
| 20260904182147 | 30 | 20 | 8.0 | 16.1 | 0.00 | 0.00 | 0.91 | 76 | 1014.2 |
| 20260904181646 | 30 | 326 | 4.8 | 14.5 | 0.00 | 0.00 | 0.91 | 77 | 1014.2 |
| 20260904181147 | 30 | 336 | 8.0 | 16.1 | 0.00 | 0.00 | 0.91 | 74 | 1014.6 |
| 20260904180647 | 30 | 353 | 4.8 | 14.5 | 0.00 | 0.00 | 0.91 | 75 | 1014.6 |
| 20260904180148 | 30 | 11 | 12.9 | 14.5 | 0.00 | 0.00 | 0.91 | 77 | 1014.6 |
| 20260904175647 | 30 | 346 | 9.7 | 14.5 | 0.00 | 0.00 | 0.91 | 76 | 1014.6 |
| 20260904175147 | 29 | 20 | 6.4 | 16.1 | 0.00 | 0.00 | 0.91 | 77 | 1014.6 |
| 20260904174647 | 29 | 47 | 11.3 | 14.5 | 0.00 | 0.00 | 0.91 | 77 | 1014.6 |
| 20260904174148 | 28 | 8 | 6.4 | 11.3 | 0.00 | 0.00 | 0.91 | 80 | 1014.9 |
| 20260904173647 | 28 | 41 | 12.9 | 17.7 | 0.00 | 0.00 | 0.91 | 80 | 1014.6 |
| 20260904173147 | 28 | 21 | 9.7 | 12.9 | 0.00 | 0.00 | 0.91 | 81 | 1014.6 |
| 20260904172646 | 28 | 44 | 4.8 | 11.3 | 0.00 | 0.00 | 0.91 | 82 | 1014.6 |
| 20260904172146 | 28 | 33 | 9.7 | 12.9 | 0.00 | 0.00 | 0.91 | 81 | 1014.6 |
| 20260904171646 | 28 | 7 | 3.2 | 14.5 | 0.00 | 0.00 | 0.91 | 83 | 1014.6 |
| 20260904171146 | 28 | 24 | 11.3 | 17.7 | 0.00 | 0.00 | 0.91 | 83 | 1014.6 |
| 20260904170646 | 28 | 345 | 1.6 | 16.1 | 0.00 | 0.00 | 0.91 | 84 | 1014.9 |
| 20260904170147 | 28 | 11 | 6.4 | 12.9 | 0.00 | 0.00 | 0.91 | 83 | 1014.2 |
| 20260904165646 | 28 | 51 | 8.0 | 14.5 | 0.00 | 0.00 | 0.91 | 81 | 1014.6 |
| 20260904165147 | 28 | 8 | 4.8 | 8.0 | 0.00 | 0.00 | 0.91 | 82 | 1014.6 |
| 20260904164646 | 28 | 27 | 9.7 | 16.1 | 0.00 | 0.00 | 0.91 | 82 | 1014.6 |
| 20260904164146 | 28 | 38 | 9.7 | 12.9 | 0.00 | 0.00 | 0.91 | 81 | 1014.9 |
| 20260904163646 | 28 | 1 | 3.2 | 12.9 | 0.00 | 0.00 | 0.91 | 82 | 1014.9 |
| 20260904163146 | 28 | 29 | 8.0 | 11.3 | 0.00 | 0.00 | 0.91 | 82 | 1015.2 |
| 20260904162646 | 28 | 23 | 8.0 | 8.0 | 0.00 | 0.00 | 0.91 | 83 | 1015.2 |
| 20260904162146 | 28 | 36 | 6.4 | 14.5 | 0.00 | 0.00 | 0.91 | 83 | 1014.9 |
| 20260904161646 | 28 | 35 | 6.4 | 11.3 | 0.00 | 0.00 | 0.91 | 83 | 1015.2 |
| 20260904161147 | 28 | 33 | 6.4 | 9.7 | 0.00 | 0.00 | 0.91 | 83 | 1015.2 |
| 20260904160647 | 28 | 355 | 4.8 | 8.0 | 0.00 | 0.00 | 0.91 | 84 | 1015.2 |
| 20260904160146 | 28 | 348 | 3.2 | 9.7 | 0.00 | 0.00 | 0.91 | 84 | 1015.2 |
| 20260904155649 | 28 | 358 | 3.2 | 11.3 | 0.00 | 0.00 | 0.91 | 85 | 1015.2 |
| 20260904155146 | 28 | 324 | 8.0 | 12.9 | 0.00 | 0.00 | 0.91 | 84 | 1015.2 |
| 20260904154646 | 28 | 53 | 8.0 | 12.9 | 0.00 | 0.00 | 0.91 | 85 | 1015.2 |
| 20260904154149 | 28 | 16 | 8.0 | 8.0 | 0.00 | 0.00 | 0.91 | 86 | 1014.9 |
| 20260904153647 | 28 | 354 | 3.2 | 11.3 | 0.00 | 0.00 | 0.91 | 86 | 1014.9 |
| 20260904153149 | 28 | 20 | 4.8 | 8.0 | 0.00 | 0.00 | 0.91 | 88 | 1014.9 |
| 20260904152646 | 27 | 350 | 4.8 | 9.7 | 0.00 | 0.00 | 0.91 | 88 | 1014.9 |
| 20260904152146 | 27 | 350 | 4.8 | 9.7 | 0.00 | 0.00 | 0.91 | 88 | 1014.9 |
| 20260904151646 | 27 | 14 | 4.8 | 9.7 | 0.00 | 0.00 | 0.91 | 89 | 1015.2 |
| 20260904151147 | 27 | 360 | 4.8 | 9.7 | 0.00 | 0.00 | 0.91 | 89 | 1015.2 |
| 20260904150646 | 27 | 12 | 4.8 | 9.7 | 0.00 | 0.00 | 0.91 | 89 | 1015.2 |
| 20260904150146 | 27 | 350 | 3.2 | 11.3 | 0.00 | 0.00 | 0.91 | 88 | 1015.2 |
| 20260904145646 | 27 | 340 | 4.8 | 6.4 | 0.00 | 0.00 | 0.91 | 88 | 1015.2 |
| 20260904145146 | 27 | 46 | 6.4 | 8.0 | 0.00 | 0.00 | 0.91 | 87 | 1014.9 |
| 20260904144647 | 27 | 360 | 3.2 | 8.0 | 0.00 | 0.00 | 0.91 | 87 | 1014.9 |
| 20260904144148 | 27 | 4 | 4.8 | 8.0 | 0.00 | 0.00 | 0.91 | 88 | 1015.2 |
| 20260904143647 | 27 | 45 | 6.4 | 9.7 | 0.00 | 0.00 | 0.91 | 88 | 1014.9 |
| 20260904143146 | 27 | 48 | 6.4 | 8.0 | 0.00 | 0.00 | 0.91 | 89 | 1014.9 |
| 20260904142646 | 26 | 303 | 3.2 | 9.7 | 0.00 | 0.00 | 0.91 | 90 | 1014.9 |
| 20260904142146 | 26 | 61 | 6.4 | 8.0 | 0.00 | 0.00 | 0.91 | 90 | 1014.9 |
| 20260904141648 | 26 | 69 | 3.2 | 4.8 | 0.00 | 0.00 | 0.91 | 90 | 1014.9 |
| 20260904141146 | 26 | 70 | 4.8 | 6.4 | 0.00 | 0.00 | 0.91 | 90 | 1014.9 |
| 20260904140647 | 26 | 47 | 4.8 | 8.0 | 0.00 | 0.00 | 0.91 | 90 | 1014.6 |
| 20260904140147 | 26 | 96 | 1.6 | 6.4 | 0.00 | 0.00 | 0.91 | 90 | 1014.9 |
| 20260904135647 | 26 | 26 | 0.0 | 3.2 | 0.00 | 0.00 | 0.91 | 90 | 1014.9 |
| 20260904135146 | 25 | 67 | 3.2 | 6.4 | 0.00 | 0.00 | 0.91 | 90 | 1014.9 |
| 20260904134647 | 25 | 7 | 4.8 | 9.7 | 0.00 | 0.00 | 0.91 | 90 | 1014.6 |
| 20260904134147 | 25 | 100 | 4.8 | 8.0 | 0.00 | 0.00 | 0.91 | 91 | 1014.6 |
| 20260904133646 | 25 | 342 | 4.8 | 9.7 | 0.00 | 0.00 | 0.91 | 92 | 1014.2 |
| 20260904133147 | 25 | 340 | 11.3 | 16.1 | 0.00 | 0.00 | 0.91 | 92 | 1014.2 |
| 20260904132647 | 24 | 320 | 6.4 | 12.9 | 0.00 | 0.00 | 0.91 | 92 | 1014.2 |
| 20260904132146 | 24 | 298 | 8.0 | 9.7 | 0.00 | 0.00 | 0.91 | 92 | 1014.2 |
| 20260904131646 | 24 | 316 | 3.2 | 8.0 | 0.00 | 0.00 | 0.91 | 93 | 1014.2 |
| 20260904131147 | 24 | 305 | 6.4 | 9.7 | 0.00 | 0.00 | 0.91 | 92 | 1014.2 |
| 20260904130646 | 23 | 8 | 4.8 | 11.3 | 0.00 | 0.00 | 0.91 | 94 | 1014.2 |
| 20260904130146 | 23 | 317 | 1.6 | 6.4 | 0.00 | 0.00 | 0.91 | 94 | 1014.2 |
| 20260904125647 | 23 | 275 | 3.2 | 6.4 | 0.00 | 0.00 | 0.91 | 94 | 1014.2 |
| 20260904125147 | 23 | 314 | 4.8 | 8.0 | 0.00 | 0.00 | 0.91 | 94 | 1014.2 |
| 20260904124648 | 23 | 293 | 3.2 | 8.0 | 0.00 | 0.00 | 0.91 | 95 | 1014.2 |
| 20260904124147 | 23 | 294 | 3.2 | 4.8 | 0.05 | 0.00 | 0.91 | 95 | 1014.2 |
| 20260904123647 | 23 | 229 | 3.2 | 6.4 | 0.05 | 0.00 | 0.91 | 94 | 1014.2 |
| 20260904123146 | 23 | 282 | 4.8 | 8.0 | 0.00 | 0.00 | 0.91 | 94 | 1014.2 |
| 20260904122647 | 23 | 335 | 9.7 | 14.5 | 0.05 | 0.00 | 0.91 | 94 | 1014.2 |
| 20260904122147 | 23 | 339 | 11.3 | 14.5 | 0.13 | 0.00 | 0.91 | 95 | 1014.2 |
| 20260904121646 | 23 | 347 | 9.7 | 19.3 | 0.05 | 0.00 | 0.89 | 95 | 1014.2 |
| 20260904121148 | 23 | 349 | 4.8 | 11.3 | 0.05 | 0.00 | 0.89 | 94 | 1014.2 |
| 20260904120646 | 23 | 294 | 4.8 | 11.3 | 0.23 | 0.00 | 0.89 | 93 | 1013.9 |
| 20260904120147 | 23 | 357 | 8.0 | 12.9 | 0.36 | 0.00 | 0.89 | 93 | 1013.9 |
| 20260904115647 | 23 | 356 | 6.4 | 14.5 | 0.97 | 0.00 | 0.86 | 95 | 1013.9 |
| 20260904115148 | 23 | 25 | 11.3 | 14.5 | 2.11 | 0.00 | 0.81 | 94 | 1014.2 |
| 20260904114647 | 23 | 357 | 8.0 | 16.1 | 2.03 | 0.00 | 0.66 | 93 | 1013.9 |
| 20260904114146 | 23 | 17 | 8.0 | 16.1 | 1.80 | 0.00 | 0.46 | 95 | 1013.9 |
| 20260904113650 | 23 | 34 | 14.5 | 17.7 | 1.63 | 0.00 | 0.28 | 95 | 1013.5 |
| 20260904113146 | 23 | 59 | 3.2 | 14.5 | 0.66 | 0.00 | 0.10 | 90 | 1013.5 |
| 20260904112646 | 24 | 352 | 9.7 | 16.1 | 0.00 | 0.00 | 0.00 | 87 | 1013.5 |
| 20260904112146 | 24 | 7 | 8.0 | 14.5 | 0.00 | 0.00 | 0.00 | 87 | 1013.5 |
| 20260904111646 | 24 | 334 | 11.3 | 14.5 | 0.00 | 0.00 | 0.00 | 90 | 1013.5 |
| 20260904111146 | 25 | 315 | 8.0 | 16.1 | 0.00 | 0.00 | 0.00 | 90 | 1013.9 |
| 20260904110646 | 25 | 283 | 8.0 | 11.3 | 0.00 | 0.00 | 0.00 | 86 | 1013.9 |
| 20260904110148 | 26 | 328 | 8.0 | 12.9 | 0.00 | 0.00 | 0.00 | 84 | 1013.5 |
| 20260904105647 | 26 | 338 | 6.4 | 16.1 | 0.00 | 0.00 | 0.00 | 82 | 1013.5 |
| 20260904105146 | 26 | 325 | 12.9 | 20.9 | 0.00 | 0.00 | 0.00 | 86 | 1013.5 |
| 20260904104647 | 26 | 352 | 6.4 | 9.7 | 0.00 | 0.00 | 0.00 | 94 | 1013.5 |
| 20260904104146 | 26 | 315 | 0.0 | 3.2 | 0.00 | 0.00 | 0.00 | 95 | 1013.5 |
| 20260904103647 | 26 | 248 | 3.2 | 6.4 | 0.00 | 0.00 | 0.00 | 94 | 1013.2 |
| 20260904103148 | 26 | 273 | 3.2 | 3.2 | 0.00 | 0.00 | 0.00 | 95 | 1013.2 |
| 20260904102647 | 26 | 301 | 1.6 | 3.2 | 0.00 | 0.00 | 0.00 | 95 | 1012.9 |
| 20260904102146 | 26 | 237 | 3.2 | 4.8 | 0.00 | 0.00 | 0.00 | 95 | 1012.9 |
| 20260904101647 | 26 | 213 | 3.2 | 4.8 | 0.00 | 0.00 | 0.00 | 95 | 1012.9 |
| 20260904101147 | 26 | 193 | 3.2 | 4.8 | 0.00 | 0.00 | 0.00 | 94 | 1013.2 |
| 20260904100646 | 26 | 208 | 3.2 | 4.8 | 0.00 | 0.00 | 0.00 | 94 | 1012.9 |
| 20260904100147 | 26 | 198 | 3.2 | 4.8 | 0.00 | 0.00 | 0.00 | 94 | 1012.9 |
| 20260904095646 | 26 | 195 | 3.2 | 4.8 | 0.00 | 0.00 | 0.00 | 93 | 1012.9 |
| 20260904095148 | 27 | 214 | 0.0 | 3.2 | 0.00 | 0.00 | 0.00 | 93 | 1012.9 |
| 20260904094647 | 27 | 297 | 1.6 | 1.6 | 0.00 | 0.00 | 0.00 | 93 | 1012.5 |
| 20260904094146 | 27 | 246 | 1.6 | 3.2 | 0.00 | 0.00 | 0.00 | 93 | 1012.9 |
| 20260904093646 | 26 | 287 | 1.6 | 4.8 | 0.00 | 0.00 | 0.00 | 93 | 1012.9 |
| 20260904093147 | 26 | 281 | 0.0 | 4.8 | 0.00 | 0.00 | 0.00 | 93 | 1012.9 |
| 20260904092646 | 26 | 214 | 0.0 | 4.8 | 0.00 | 0.00 | 0.00 | 93 | 1012.5 |
| 20260904092147 | 26 | 220 | 3.2 | 4.8 | 0.00 | 0.00 | 0.00 | 92 | 1012.9 |
| 20260904091647 | 26 | 267 | 3.2 | 4.8 | 0.00 | 0.00 | 0.00 | 93 | 1012.9 |
| 20260904091147 | 26 | 300 | 3.2 | 4.8 | 0.00 | 0.00 | 0.00 | 92 | 1012.9 |
| 20260904090647 | 26 | 310 | 3.2 | 4.8 | 0.00 | 0.00 | 0.00 | 92 | 1012.9 |
| 20260904090146 | 26 | 300 | 3.2 | 4.8 | 0.00 | 0.00 | 0.00 | 92 | 1012.9 |
| 20260904085647 | 26 | 285 | 4.8 | 4.8 | 0.00 | 0.00 | 0.00 | 93 | 1012.9 |
| 20260904085146 | 26 | 275 | 3.2 | 6.4 | 0.00 | 0.00 | 0.00 | 93 | 1012.9 |
| 20260904084647 | 26 | 282 | 4.8 | 4.8 | 0.00 | 0.00 | 0.00 | 93 | 1012.9 |
| 20260904084147 | 26 | 312 | 1.6 | 4.8 | 0.00 | 0.00 | 0.00 | 93 | 1012.9 |
| 20260904083646 | 27 | 287 | 3.2 | 3.2 | 0.00 | 0.00 | 0.00 | 93 | 1012.9 |
| 20260904083146 | 27 | 272 | 4.8 | 4.8 | 0.00 | 0.00 | 0.00 | 93 | 1013.2 |
| 20260904082646 | 26 | 258 | 0.0 | 3.2 | 0.00 | 0.00 | 0.00 | 93 | 1012.9 |
| 20260904082146 | 26 | 293 | 3.2 | 3.2 | 0.00 | 0.00 | 0.00 | 93 | 1012.9 |
| 20260904081648 | 26 | 341 | 0.0 | 1.6 | 0.00 | 0.00 | 0.00 | 93 | 1013.2 |
| 20260904081146 | 26 | 326 | 0.0 | 1.6 | 0.00 | 0.00 | 0.00 | 93 | 1013.2 |
| 20260904080646 | 26 | 224 | 0.0 | 0.0 | 0.00 | 0.00 | 0.00 | 93 | 1012.9 |
| 20260904080146 | 26 | 224 | 0.0 | 0.0 | 0.00 | 0.00 | 0.00 | 93 | 1013.2 |
| 20260904075646 | 26 | 229 | 0.0 | 3.2 | 0.00 | 0.00 | 0.00 | 93 | 1012.9 |
| 20260904075146 | 26 | 231 | 1.6 | 3.2 | 0.00 | 0.00 | 0.00 | 93 | 1012.9 |
| 20260904074646 | 26 | 193 | 0.0 | 3.2 | 0.00 | 0.00 | 0.00 | 93 | 1013.2 |
| 20260904074148 | 26 | 234 | 1.6 | 3.2 | 0.00 | 0.00 | 0.00 | 93 | 1013.2 |
| 20260904073647 | 26 | 234 | 3.2 | 3.2 | 0.00 | 0.00 | 0.00 | 93 | 1013.2 |
| 20260904073147 | 27 | 210 | 0.0 | 1.6 | 0.00 | 0.00 | 0.00 | 93 | 1012.9 |
| 20260904072646 | 27 | 304 | 0.0 | 0.0 | 0.00 | 0.00 | 0.00 | 93 | 1012.9 |
| 20260904072148 | 26 | 329 | 0.0 | 3.2 | 0.00 | 0.00 | 0.00 | 93 | 1013.2 |
| 20260904071647 | 26 | 230 | 0.0 | 0.0 | 0.00 | 0.00 | 0.00 | 93 | 1012.9 |
| 20260904071147 | 26 | 246 | 0.0 | 1.6 | 0.00 | 0.00 | 0.00 | 93 | 1012.9 |
| 20260904070646 | 26 | 218 | 1.6 | 3.2 | 0.00 | 0.00 | 0.00 | 93 | 1013.2 |
| 20260904070146 | 26 | 237 | 1.6 | 3.2 | 0.00 | 0.00 | 0.00 | 94 | 1013.2 |
| 20260904065647 | 26 | 185 | 0.0 | 3.2 | 0.00 | 0.00 | 0.00 | 93 | 1013.2 |
| 20260904065146 | 26 | 224 | 0.0 | 0.0 | 0.00 | 0.00 | 0.00 | 93 | 1013.2 |
| 20260904064647 | 26 | 222 | 0.0 | 1.6 | 0.00 | 0.00 | 0.00 | 93 | 1013.2 |
| 20260904064146 | 27 | 255 | 0.0 | 1.6 | 0.00 | 0.00 | 0.00 | 93 | 1013.2 |
| 20260904063648 | 26 | 315 | 0.0 | 1.6 | 0.00 | 0.00 | 0.00 | 93 | 1013.2 |
| 20260904063147 | 26 | 224 | 0.0 | 0.0 | 0.00 | 0.00 | 0.00 | 93 | 1013.2 |
| 20260904062647 | 26 | 224 | 0.0 | 1.6 | 0.00 | 0.00 | 0.00 | 93 | 1013.2 |
| 20260904062146 | 26 | 218 | 0.0 | 1.6 | 0.00 | 0.00 | 0.00 | 93 | 1013.2 |
| 20260904061647 | 26 | 242 | 0.0 | 0.0 | 0.00 | 0.00 | 0.00 | 93 | 1013.2 |
| 20260904061148 | 26 | 135 | 0.0 | 0.0 | 0.00 | 0.00 | 0.00 | 93 | 1013.2 |
| 20260904060646 | 26 | 135 | 0.0 | 1.6 | 0.00 | 0.00 | 0.00 | 93 | 1013.2 |
| 20260904060147 | 26 | 32 | 0.0 | 1.6 | 0.00 | 0.00 | 0.00 | 93 | 1013.5 |
| 20260904055647 | 27 | 142 | 0.0 | 0.0 | 0.00 | 0.00 | 0.00 | 92 | 1013.2 |
| 20260904055146 | 27 | 142 | 0.0 | 0.0 | 0.00 | 0.00 | 0.00 | 92 | 1013.2 |
| 20260904054646 | 27 | 195 | 0.0 | 1.6 | 0.00 | 0.00 | 0.00 | 92 | 1013.2 |
| 20260904054146 | 27 | 190 | 1.6 | 1.6 | 0.00 | 0.00 | 0.00 | 92 | 1013.2 |
| 20260904053646 | 27 | 224 | 1.6 | 3.2 | 0.00 | 0.00 | 0.00 | 92 | 1013.2 |
| 20260904053147 | 27 | 184 | 0.0 | 1.6 | 0.00 | 0.00 | 0.00 | 91 | 1013.2 |
| 20260904052646 | 27 | 284 | 0.0 | 1.6 | 0.00 | 0.00 | 0.00 | 91 | 1013.2 |
| 20260904052147 | 27 | 343 | 0.0 | 1.6 | 0.00 | 0.00 | 0.00 | 91 | 1013.2 |
| 20260904051646 | 27 | 272 | 0.0 | 3.2 | 0.00 | 0.00 | 0.00 | 91 | 1012.9 |
| 20260904051147 | 27 | 242 | 0.0 | 1.6 | 0.00 | 0.00 | 0.00 | 90 | 1012.9 |
| 20260904050646 | 27 | 224 | 0.0 | 0.0 | 0.00 | 0.00 | 0.00 | 90 | 1012.9 |
| 20260904050146 | 27 | 269 | 0.0 | 1.6 | 0.00 | 0.00 | 0.00 | 90 | 1012.9 |
| 20260904045647 | 27 | 242 | 0.0 | 1.6 | 0.00 | 0.00 | 0.00 | 89 | 1012.9 |
| 20260904045147 | 27 | 215 | 0.0 | 3.2 | 0.00 | 0.00 | 0.00 | 89 | 1012.9 |
| 20260904044646 | 27 | 229 | 1.6 | 3.2 | 0.00 | 0.00 | 0.00 | 88 | 1012.5 |
| 20260904044146 | 27 | 293 | 0.0 | 0.0 | 0.00 | 0.00 | 0.00 | 88 | 1012.9 |
| 20260904043646 | 27 | 263 | 3.2 | 3.2 | 0.00 | 0.00 | 0.00 | 89 | 1012.9 |
| 20260904043147 | 27 | 222 | 3.2 | 4.8 | 0.00 | 0.00 | 0.00 | 88 | 1012.9 |
| 20260904042646 | 27 | 224 | 0.0 | 1.6 | 0.00 | 0.00 | 0.00 | 88 | 1012.5 |
| 20260904042147 | 27 | 230 | 0.0 | 0.0 | 0.00 | 0.00 | 0.00 | 87 | 1012.9 |
| 20260904041646 | 27 | 224 | 0.0 | 1.6 | 0.00 | 0.00 | 0.00 | 87 | 1012.9 |
| 20260904041148 | 27 | 210 | 0.0 | 1.6 | 0.00 | 0.00 | 0.00 | 87 | 1012.9 |
| 20260904040646 | 27 | 141 | 1.6 | 1.6 | 0.00 | 0.00 | 0.00 | 87 | 1012.9 |
| 20260904040149 | 27 | 315 | 0.0 | 1.6 | 0.00 | 0.00 | 0.00 | 87 | 1012.9 |
| 20260904035646 | 27 | 294 | 0.0 | 3.2 | 0.00 | 0.00 | 0.00 | 87 | 1012.9 |
| 20260904035147 | 27 | 255 | 0.0 | 1.6 | 0.00 | 0.00 | 0.00 | 86 | 1012.9 |
| 20260904034646 | 27 | 173 | 0.0 | 1.6 | 0.00 | 0.00 | 0.00 | 86 | 1013.2 |
| 20260904034146 | 27 | 160 | 3.2 | 3.2 | 0.00 | 0.00 | 0.00 | 86 | 1012.9 |
| 20260904033646 | 27 | 142 | 0.0 | 0.0 | 0.00 | 0.00 | 0.00 | 86 | 1013.2 |
| 20260904033146 | 27 | 224 | 0.0 | 1.6 | 0.00 | 0.00 | 0.00 | 86 | 1013.2 |
| 20260904032646 | 28 | 210 | 0.0 | 1.6 | 0.00 | 0.00 | 0.00 | 86 | 1013.2 |
| 20260904032149 | 27 | 197 | 1.6 | 3.2 | 0.00 | 0.00 | 0.00 | 86 | 1013.2 |
| 20260904031647 | 28 | 195 | 1.6 | 3.2 | 0.00 | 0.00 | 0.00 | 86 | 1013.2 |
| 20260904031146 | 28 | 215 | 0.0 | 1.6 | 0.00 | 0.00 | 0.00 | 86 | 1013.2 |
| 20260904030646 | 28 | 186 | 1.6 | 3.2 | 0.00 | 0.00 | 0.00 | 86 | 1013.5 |
| 20260904030147 | 28 | 173 | 3.2 | 4.8 | 0.00 | 0.00 | 0.00 | 85 | 1013.5 |
| 20260904025647 | 28 | 138 | 3.2 | 4.8 | 0.00 | 0.00 | 0.00 | 85 | 1013.5 |
| 20260904025146 | 28 | 117 | 0.0 | 6.4 | 0.00 | 0.00 | 0.00 | 85 | 1013.5 |
| 20260904024647 | 28 | 176 | 3.2 | 4.8 | 0.00 | 0.00 | 0.00 | 85 | 1013.5 |
| 20260904024147 | 28 | 180 | 1.6 | 3.2 | 0.00 | 0.00 | 0.00 | 85 | 1013.5 |
| 20260904023647 | 28 | 204 | 3.2 | 6.4 | 0.00 | 0.00 | 0.00 | 85 | 1013.5 |
| 20260904023147 | 28 | 164 | 3.2 | 3.2 | 0.00 | 0.00 | 0.00 | 84 | 1013.5 |
| 20260904022646 | 28 | 139 | 3.2 | 4.8 | 0.00 | 0.00 | 0.00 | 84 | 1013.5 |
| 20260904022147 | 28 | 155 | 3.2 | 4.8 | 0.00 | 0.00 | 0.00 | 84 | 1013.5 |
| 20260904021646 | 28 | 118 | 3.2 | 4.8 | 0.00 | 0.00 | 0.00 | 84 | 1013.5 |
| 20260904021146 | 28 | 160 | 4.8 | 4.8 | 0.00 | 0.00 | 0.00 | 84 | 1013.5 |
| 20260904020647 | 28 | 161 | 3.2 | 4.8 | 0.00 | 0.00 | 0.00 | 84 | 1013.5 |
| 20260904020146 | 28 | 140 | 1.6 | 4.8 | 0.00 | 0.00 | 0.00 | 84 | 1013.5 |
| 20260904015647 | 28 | 156 | 3.2 | 4.8 | 0.00 | 0.00 | 0.00 | 83 | 1013.5 |
| 20260904015146 | 28 | 163 | 3.2 | 4.8 | 0.00 | 0.00 | 0.00 | 83 | 1013.5 |
| 20260904014647 | 28 | 161 | 4.8 | 4.8 | 0.00 | 0.00 | 0.00 | 83 | 1013.2 |
| 20260904014147 | 28 | 176 | 3.2 | 4.8 | 0.00 | 0.00 | 0.00 | 83 | 1013.2 |
| 20260904013646 | 28 | 163 | 3.2 | 4.8 | 0.00 | 0.00 | 0.00 | 83 | 1013.2 |
| 20260904013148 | 28 | 158 | 4.8 | 4.8 | 0.00 | 0.00 | 0.00 | 82 | 1013.2 |
| 20260904012646 | 28 | 154 | 3.2 | 6.4 | 0.00 | 0.00 | 0.00 | 82 | 1013.2 |
| 20260904012146 | 28 | 145 | 4.8 | 6.4 | 0.00 | 0.00 | 0.00 | 83 | 1012.9 |
| 20260904011646 | 28 | 161 | 4.8 | 6.4 | 0.00 | 0.00 | 0.00 | 83 | 1013.2 |
| 20260904011146 | 28 | 164 | 4.8 | 4.8 | 0.00 | 0.00 | 0.00 | 83 | 1013.2 |
| 20260904010647 | 28 | 183 | 6.4 | 6.4 | 0.00 | 0.00 | 0.00 | 82 | 1013.2 |
| 20260904010147 | 28 | 167 | 4.8 | 6.4 | 0.00 | 0.00 | 0.00 | 82 | 1013.2 |
| 20260904005646 | 28 | 155 | 6.4 | 8.0 | 0.00 | 0.00 | 0.00 | 81 | 1013.2 |
| 20260904005146 | 28 | 173 | 3.2 | 8.0 | 0.00 | 0.00 | 0.00 | 81 | 1013.2 |
| 20260904004646 | 28 | 172 | 8.0 | 8.0 | 0.00 | 0.00 | 0.00 | 82 | 1013.2 |
| 20260904004147 | 29 | 168 | 8.0 | 9.7 | 0.00 | 0.00 | 0.00 | 81 | 1013.2 |
| 20260904003646 | 29 | 182 | 8.0 | 11.3 | 0.00 | 0.00 | 0.00 | 81 | 1013.5 |
| 20260904003146 | 29 | 186 | 8.0 | 9.7 | 0.00 | 0.00 | 0.00 | 81 | 1013.2 |
| 20260904002646 | 29 | 168 | 6.4 | 9.7 | 0.00 | 0.00 | 0.00 | 80 | 1013.2 |
| 20260904002146 | 29 | 191 | 4.8 | 8.0 | 0.00 | 0.00 | 0.00 | 80 | 1013.2 |
| 20260904001646 | 29 | 162 | 4.8 | 8.0 | 0.00 | 0.00 | 0.00 | 80 | 1013.2 |
| 20260904001146 | 29 | 167 | 4.8 | 9.7 | 0.00 | 0.00 | 0.00 | 79 | 1013.2 |
| 20260904000647 | 30 | 166 | 6.4 | 8.0 | 0.00 | 0.00 | 0.00 | 79 | 1012.9 |
| 20260904000146 | 30 | 155 | 3.2 | 8.0 | 0.00 | 0.00 | 0.00 | 78 | 1013.2 |
| 20260903235646 | 30 | 180 | 6.4 | 9.7 | 0.00 | 0.00 | 0.00 | 78 | 1013.2 |
| 20260903235146 | 30 | 162 | 8.0 | 12.9 | 0.00 | 0.00 | 0.00 | 78 | 1013.2 |
| 20260903234646 | 30 | 162 | 6.4 | 8.0 | 0.00 | 0.00 | 0.00 | 78 | 1013.2 |
| 20260903234146 | 30 | 176 | 6.4 | 11.3 | 0.00 | 0.00 | 0.00 | 77 | 1013.2 |
| 20260903233646 | 30 | 169 | 8.0 | 11.3 | 0.00 | 0.00 | 0.00 | 77 | 1013.2 |
| 20260903233147 | 30 | 184 | 8.0 | 9.7 | 0.00 | 0.00 | 0.00 | 77 | 1013.2 |
| 20260903232646 | 30 | 176 | 8.0 | 12.9 | 0.00 | 0.00 | 0.00 | 76 | 1012.9 |
| 20260903232146 | 30 | 152 | 4.8 | 9.7 | 0.00 | 0.00 | 0.00 | 76 | 1012.9 |
| 20260903231646 | 30 | 169 | 11.3 | 14.5 | 0.00 | 0.00 | 0.00 | 75 | 1012.9 |
| 20260903231146 | 30 | 181 | 9.7 | 9.7 | 0.00 | 0.00 | 0.00 | 76 | 1012.9 |
| 20260903230648 | 30 | 184 | 8.0 | 12.9 | 0.00 | 0.00 | 0.00 | 76 | 1012.9 |
| 20260903230150 | 30 | 190 | 9.7 | 17.7 | 0.00 | 0.00 | 0.00 | 76 | 1012.5 |
| 20260903225647 | 30 | 161 | 12.9 | 17.7 | 0.00 | 0.00 | 0.00 | 77 | 1012.9 |
| 20260903225146 | 30 | 174 | 9.7 | 17.7 | 0.00 | 0.00 | 0.00 | 76 | 1012.5 |
| 20260903224646 | 30 | 167 | 14.5 | 19.3 | 0.00 | 0.00 | 0.00 | 75 | 1012.9 |
| 20260903224149 | 30 | 167 | 14.5 | 22.5 | 0.00 | 0.00 | 0.00 | 75 | 1012.9 |
| 20260903223647 | 31 | 175 | 9.7 | 14.5 | 0.00 | 0.00 | 0.00 | 73 | 1012.9 |
| 20260903223146 | 31 | 164 | 8.0 | 11.3 | 0.00 | 0.00 | 0.00 | 72 | 1012.9 |
| 20260903222646 | 31 | 166 | 6.4 | 9.7 | 0.00 | 0.00 | 0.00 | 73 | 1012.5 |
| 20260903222146 | 31 | 165 | 12.9 | 14.5 | 0.00 | 0.00 | 0.00 | 71 | 1012.9 |
| 20260903221646 | 31 | 171 | 6.4 | 14.5 | 0.00 | 0.00 | 0.00 | 70 | 1012.5 |
| 20260903221147 | 31 | 158 | 8.0 | 16.1 | 0.00 | 0.00 | 0.00 | 69 | 1012.9 |
| 20260903220647 | 31 | 167 | 12.9 | 12.9 | 0.00 | 0.00 | 0.00 | 69 | 1012.9 |
| 20260903220147 | 31 | 160 | 8.0 | 14.5 | 0.00 | 0.00 | 0.00 | 69 | 1012.9 |
| 20260903215647 | 31 | 176 | 4.8 | 9.7 | 0.00 | 0.00 | 0.00 | 69 | 1012.9 |
| 20260903215146 | 31 | 173 | 9.7 | 11.3 | 0.00 | 0.00 | 0.00 | 69 | 1012.9 |
| 20260903214647 | 31 | 163 | 9.7 | 16.1 | 0.00 | 0.00 | 0.00 | 68 | 1012.9 |
| 20260903214146 | 31 | 178 | 8.0 | 11.3 | 0.00 | 0.00 | 0.00 | 69 | 1012.9 |
| 20260903213648 | 31 | 173 | 4.8 | 9.7 | 0.00 | 0.00 | 0.00 | 72 | 1012.9 |
| 20260903213147 | 31 | 161 | 11.3 | 11.3 | 0.00 | 0.00 | 0.00 | 73 | 1013.2 |
| 20260903212647 | 31 | 171 | 6.4 | 9.7 | 0.00 | 0.00 | 0.00 | 74 | 1013.2 |
| 20260903212150 | 31 | 173 | 16.1 | 16.1 | 0.00 | 0.00 | 0.00 | 74 | 1012.9 |
| 20260903211646 | 31 | 180 | 8.0 | 12.9 | 0.00 | 0.00 | 0.00 | 74 | 1012.9 |
| 20260903211147 | 30 | 180 | 4.8 | 8.0 | 0.00 | 0.00 | 0.00 | 77 | 1012.9 |
| 20260903210646 | 30 | 179 | 8.0 | 12.9 | 0.00 | 0.00 | 0.00 | 77 | 1012.9 |
| 20260903210149 | 30 | 204 | 6.4 | 12.9 | 0.00 | 0.00 | 0.00 | 77 | 1012.9 |
| 20260903205646 | 30 | 231 | 6.4 | 14.5 | 0.00 | 0.00 | 0.00 | 78 | 1013.2 |
| 20260903205147 | 30 | 173 | 8.0 | 14.5 | 0.00 | 0.00 | 0.00 | 78 | 1012.9 |
| 20260903204646 | 30 | 264 | 6.4 | 16.1 | 0.00 | 0.00 | 0.00 | 77 | 1012.9 |
| 20260903204148 | 30 | 227 | 11.3 | 11.3 | 0.00 | 0.00 | 0.00 | 78 | 1013.2 |
| 20260903203647 | 30 | 228 | 9.7 | 14.5 | 0.00 | 0.00 | 0.00 | 77 | 1012.9 |
| 20260903203146 | 30 | 238 | 4.8 | 14.5 | 0.00 | 0.00 | 0.00 | 76 | 1012.9 |
| 20260903202646 | 30 | 212 | 12.9 | 19.3 | 0.00 | 0.00 | 0.00 | 76 | 1013.2 |
| 20260903202146 | 31 | 196 | 14.5 | 20.9 | 0.00 | 0.00 | 0.00 | 75 | 1013.2 |
| 20260903201647 | 31 | 238 | 12.9 | 14.5 | 0.00 | 0.00 | 0.00 | 74 | 1013.2 |
| 20260903201148 | 31 | 218 | 8.0 | 12.9 | 0.00 | 0.00 | 0.00 | 74 | 1013.2 |
| 20260903200647 | 31 | 197 | 11.3 | 14.5 | 0.00 | 0.00 | 0.00 | 72 | 1013.5 |
| 20260903200147 | 31 | 190 | 11.3 | 12.9 | 0.00 | 0.00 | 0.00 | 71 | 1013.5 |
| 20260903195646 | 31 | 251 | 9.7 | 11.3 | 0.00 | 0.00 | 0.00 | 72 | 1013.2 |
| 20260903195146 | 31 | 187 | 6.4 | 11.3 | 0.00 | 0.00 | 0.00 | 72 | 1013.5 |
| 20260903194647 | 31 | 205 | 6.4 | 9.7 | 0.00 | 0.00 | 0.00 | 72 | 1013.5 |
| 20260903194147 | 30 | 255 | 8.0 | 14.5 | 0.00 | 0.00 | 0.00 | 72 | 1013.5 |
| 20260903193646 | 30 | 269 | 6.4 | 14.5 | 0.00 | 0.00 | 0.00 | 73 | 1013.5 |
| 20260903193146 | 30 | 232 | 8.0 | 17.7 | 0.00 | 0.00 | 0.00 | 75 | 1013.5 |
| 20260903192646 | 30 | 235 | 9.7 | 17.7 | 0.00 | 0.00 | 0.00 | 76 | 1013.5 |
| 20260903192146 | 30 | 224 | 11.3 | 14.5 | 0.00 | 0.00 | 0.00 | 76 | 1013.5 |
| 20260903191647 | 30 | 214 | 8.0 | 16.1 | 0.00 | 0.00 | 0.00 | 77 | 1013.5 |
| 20260903191147 | 30 | 247 | 8.0 | 16.1 | 0.00 | 0.00 | 0.00 | 76 | 1014.2 |
| 20260903190646 | 31 | 226 | 8.0 | 11.3 | 0.00 | 0.00 | 0.00 | 74 | 1013.9 |
| 20260903190147 | 30 | 209 | 6.4 | 9.7 | 0.00 | 0.00 | 0.00 | 76 | 1014.2 |
| 20260903185647 | 30 | 227 | 9.7 | 11.3 | 0.00 | 0.00 | 0.00 | 74 | 1014.2 |
| 20260903185147 | 30 | 194 | 6.4 | 11.3 | 0.00 | 0.00 | 0.00 | 73 | 1014.2 |
| 20260903184648 | 30 | 243 | 9.7 | 11.3 | 0.00 | 0.00 | 0.00 | 74 | 1014.2 |
| 20260903184147 | 30 | 184 | 4.8 | 9.7 | 0.00 | 0.00 | 0.00 | 75 | 1014.2 |
| 20260903183646 | 30 | 224 | 0.0 | 6.4 | 0.00 | 0.00 | 0.00 | 74 | 1013.9 |
| 20260903183146 | 31 | 165 | 11.3 | 12.9 | 0.00 | 0.00 | 0.00 | 71 | 1014.2 |
| 20260903182647 | 32 | 75 | 1.6 | 9.7 | 0.00 | 0.00 | 0.00 | 67 | 1014.2 |